sat.trackr.live / text

‹ back to catalog

STARLINK-6243

NORAD 57080 · 2023-088AJ

PAYLOAD ACTIVE UNKNOWN

§ Identity

Operator
Country
US
Launch date
2023-06-22
Launch site
AFWTR
Launch vehicle
Mass (kg)
RCS (m²)

Purposes: comms

External: N2YO · Heavens-Above · Gunter

§ Orbital elements

Epoch: 2026-09-19T19:14:34.793376Z

Period
94.27 min
Inclination
43.0021°
Eccentricity
0.0001029
Mean motion
15.27577918 rev/d
Perigee alt
482.3 km
Apogee alt
483.8 km
Semi-major
6,861.2 km
B*
9.3152e-6
RAAN
80.1953°
Arg perigee
266.0159°
Mean anomaly
94.0575°
Rev number
18,001

§ Raw data

STARLINK-62431 57080U 23088AJ  26262.80179159 -.00000006  00000+0  93152-5 0  99902 57080  43.0021  80.1953 0001029 266.0159  94.0575 15.27577918180011

JSON: /api/v1/satellites/57080 · /tle

For live sub-satellite position, see the globe view (requires WebGL).

§ Visibility from observer

Set your observer location to see the next 7 days of passes ≥ 10°. The values pass through the URL so the page stays shareable.

No JS? Fill the form by hand. The geolocation button needs JavaScript.